Location: Duffs
(47.4500°N, 53.1167°W)
Time: 10:28:00
(UTC+00:00)

ISS - Pass Details

Date: 30 May 2022
Orbit: 414 x 420 km, 51.6° (Epoch: 01 July)

Event Time Altitude Azimuth Distance (km) Brightness Sun altitude
Rises 00:15:56 0° 292° (WNW) 2,371 1.5 -8.2°
Reaches altitude 10° 00:18:06 10° 286° (WNW) 1,503 0.1 -8.5°
Maximum altitude 00:21:18 41° 214° (SW) 615 -3.0 -8.9°
Enters shadow 00:24:02 13° 145° (SE) 1,315 -1.9 -9.2°
